Worcester, MA

9:22 AM EDT on June 29, 2017 (GMT -0400)
Worcester Regional

Weather History for KORH - September, 2013

Change the Weather History Date:

Sunday, September 1, 2013

  Actual Average Record
Temperature  
Mean Temperature 71 °F 66 °F  
Max Temperature 75 °F 75 °F 90 °F (1937)
Min Temperature 66 °F 58 °F 38 °F (1926)
Degree Days  
Heating Degree Days 0 2  
Month to date heating degree days 0 2  
Since 1 July heating degree days 19 41  
Cooling Degree Days 6 3  
Month to date cooling degree days 6 3  
Year to date cooling degree days 537 429  
Growing Degree Days 20 (Base 50)    
Moisture  
Dew Point 69 °F    
Average Humidity 94    
Maximum Humidity 100    
Minimum Humidity 87    
Precipitation  
Precipitation 1.61 in 0.11 in 1.62 in (1927)
Month to date precipitation 1.61 0.11  
Year to date precipitation 34.63 31.47  
Sea Level Pressure  
Sea Level Pressure 29.88 in    
Wind  
Wind Speed 7 mph (SW)    
Max Wind Speed 18 mph    
Max Gust Speed 25 mph    
Visibility 6 miles    
Events Fog , Rain , Thunderstorm    
T = Trace of Precipitation, MM = Missing Value Source: NWS Daily Summary

Daily Weather History Graph

Daily Weather History Graph

Search for Another Location

Airport or City:

Trip Planner

Search our weather history database for the weather conditions in past years. The results will help you decide how hot, cold, wet, or windy it might be!

Date:

Astronomy

Sep. 01, 2013 Rise Set
Actual Time 6:13 AM EDT 7:21 PM EDT
Civil Twilight 5:44 AM EDT 7:49 PM EDT
Nautical Twilight 5:09 AM EDT 8:24 PM EDT
Astronomical Twilight 4:33 AM EDT 9:00 PM EDT
Moon 2:29 AM EDT (9/1) 4:58 PM EDT (9/1)
Length of Visible Light 14h 05m
Length of Day
13h 08m
Waning Crescent, 14% of the Moon is Illuminated
Sep 1
Waning Crescent
Sep 5
New
Sep 12
First Quarter
Sep 19
Full
Sep 26
Last Quarter

Hourly Weather History & Observations

Time (EDT) Temp. Dew Point Humidity Pressure Visibility Wind Dir Wind Speed Gust Speed Precip Events Conditions
12:54 AM 71.1 °F 70.0 °F 96% 29.85 in 7.0 mi WSW 10.4 mph - N/A   Overcast
1:23 AM 71.1 °F 70.0 °F 96% 29.86 in 6.0 mi WSW 10.4 mph - N/A Thunderstorm Overcast
1:38 AM 71.1 °F 70.0 °F 96% 29.86 in 6.0 mi WSW 11.5 mph - N/A   Overcast
1:54 AM 72.0 °F 70.0 °F 93% 29.84 in 7.0 mi WSW 11.5 mph - N/A Thunderstorm Overcast
2:08 AM 71.1 °F 69.1 °F 93% 29.85 in 8.0 mi West 10.4 mph - N/A   Mostly Cloudy
2:18 AM 71.1 °F 69.1 °F 93% 29.85 in 9.0 mi West 10.4 mph - N/A   Scattered Clouds
2:54 AM 70.0 °F 68.0 °F 93% 29.84 in 10.0 mi West 12.7 mph - 0.00 in Rain Light Rain
3:18 AM 70.0 °F 68.0 °F 93% 29.88 in 10.0 mi WSW 18.4 mph 25.3 mph 0.00 in Rain , Thunderstorm Light Rain
3:52 AM 68.0 °F 66.2 °F 94% 29.87 in 8.0 mi West 10.4 mph - 0.08 in Rain Light Rain
3:54 AM 68.0 °F 66.0 °F 93% 29.85 in 8.0 mi West 9.2 mph - 0.08 in Rain Rain
4:54 AM 66.9 °F 64.9 °F 93% 29.82 in 10.0 mi West 13.8 mph - 0.15 in Rain Light Rain
5:54 AM 66.9 °F 64.9 °F 93% 29.86 in 10.0 mi SSW 5.8 mph - 0.03 in Rain Light Rain
6:32 AM 66.9 °F 64.9 °F 93% 29.89 in 10.0 mi SW 6.9 mph - 0.00 in   Overcast
6:38 AM 66.0 °F 66.0 °F 100% 29.89 in 10.0 mi WSW 6.9 mph - 0.00 in   Overcast
6:54 AM 66.0 °F 66.0 °F 100% 29.88 in 10.0 mi West 6.9 mph - 0.00 in   Overcast
7:06 AM 66.9 °F 66.0 °F 97% 29.89 in 10.0 mi West 6.9 mph - N/A   Overcast
7:54 AM 68.0 °F 66.0 °F 93% 29.88 in 10.0 mi SW 8.1 mph - N/A   Overcast
8:11 AM 69.1 °F 66.9 °F 93% 29.90 in 10.0 mi WSW 4.6 mph - N/A   Overcast
8:20 AM 69.1 °F 66.9 °F 93% 29.90 in 10.0 mi WSW 4.6 mph - N/A   Overcast
8:52 AM 69.8 °F 68.0 °F 94% 29.89 in 6.0 mi SW 5.8 mph - N/A   Overcast
8:54 AM 69.1 °F 68.0 °F 96% 29.88 in 6.0 mi SW 5.8 mph - N/A   Overcast
9:04 AM 68.0 °F 68.0 °F 100% 29.89 in 1.8 mi SW 8.1 mph - N/A   Overcast
9:54 AM 69.1 °F 69.1 °F 100% 29.90 in 0.8 mi SW 5.8 mph - N/A   Overcast
10:33 AM 70.0 °F 70.0 °F 100% 29.91 in 0.2 mi SW 5.8 mph - N/A Fog Fog
10:54 AM 70.0 °F 70.0 °F 100% 29.90 in 0.2 mi Calm Calm - N/A Fog Fog
11:05 AM 70.0 °F 70.0 °F 100% 29.91 in 0.2 mi SSW 4.6 mph - N/A Fog Fog
11:54 AM 71.1 °F 71.1 °F 100% 29.89 in 0.5 mi SW 4.6 mph - N/A   Overcast
12:02 PM 71.1 °F 71.1 °F 100% 29.91 in 2.0 mi Variable 3.5 mph - N/A   Overcast
12:31 PM 71.1 °F 70.0 °F 96% 29.90 in 3.0 mi South 4.6 mph - N/A   Overcast
12:54 PM 72.0 °F 70.0 °F 93% 29.89 in 3.0 mi ESE 4.6 mph - N/A   Overcast
1:07 PM 72.0 °F 70.0 °F 93% 29.90 in 3.0 mi East 5.8 mph - 0.00 in Rain Light Rain
1:24 PM 71.1 °F 70.0 °F 96% 29.90 in 3.0 mi ESE 3.5 mph - 0.00 in Rain , Thunderstorm Light Thunderstorms and Rain
1:38 PM 71.1 °F 70.0 °F 96% 29.91 in 1.8 mi Calm Calm - 0.09 in Rain , Thunderstorm Heavy Thunderstorms and Rain
1:42 PM 70.0 °F 70.0 °F 100% 29.92 in 0.8 mi ESE 3.5 mph - 0.14 in Rain Heavy Rain
1:52 PM 71.6 °F 69.8 °F 94% 29.91 in 0.5 mi ESE 6.9 mph - 0.58 in Fog , Rain , Thunderstorm Heavy Thunderstorms and Rain
1:54 PM 71.1 °F 70.0 °F 96% 29.91 in 0.2 mi ESE 5.8 mph - 0.68 in Fog , Rain , Thunderstorm Heavy Thunderstorms and Rain
1:58 PM 70.0 °F 70.0 °F 100% 29.91 in 0.5 mi SSE 8.1 mph - 0.19 in Fog , Rain , Thunderstorm Heavy Thunderstorms and Rain
2:11 PM 70.0 °F 70.0 °F 100% 29.91 in 1.0 mi SSW 11.5 mph - 0.41 in Rain , Thunderstorm Heavy Thunderstorms and Rain
2:25 PM 69.1 °F 66.9 °F 93% 29.90 in 2.0 mi WSW 5.8 mph - 0.57 in Rain , Thunderstorm Light Thunderstorms and Rain
2:41 PM 69.1 °F 68.0 °F 96% 29.89 in 1.8 mi WSW 3.5 mph - 0.63 in Rain Heavy Rain
2:48 PM 69.8 °F 68.0 °F 94% 29.89 in 3.0 mi WSW 6.9 mph - 0.67 in Rain Light Rain
2:54 PM 70.0 °F 68.0 °F 93% 29.88 in 8.0 mi WSW 5.8 mph - 0.67 in Rain Light Rain
3:54 PM 73.9 °F 72.0 °F 93% 29.86 in 10.0 mi Variable 4.6 mph - 0.00 in   Mostly Cloudy
4:07 PM 73.9 °F 72.0 °F 93% 29.88 in 10.0 mi South 5.8 mph - N/A   Scattered Clouds
4:15 PM 73.9 °F 72.0 °F 93% 29.88 in 10.0 mi SW 5.8 mph - N/A   Mostly Cloudy
4:34 PM 73.9 °F 72.0 °F 93% 29.88 in 9.0 mi SW 5.8 mph - N/A   Overcast
4:54 PM 75.0 °F 72.0 °F 90% 29.87 in 8.0 mi SW 5.8 mph - N/A   Overcast
5:03 PM 75.0 °F 72.0 °F 90% 29.88 in 8.0 mi South 9.2 mph - N/A   Mostly Cloudy
5:06 PM 75.0 °F 72.0 °F 90% 29.88 in 9.0 mi South 8.1 mph - N/A   Mostly Cloudy
5:19 PM 75.0 °F 72.0 °F 90% 29.88 in 9.0 mi SW 5.8 mph - N/A   Scattered Clouds
5:54 PM 75.0 °F 72.0 °F 90% 29.88 in 8.0 mi SSW 5.8 mph - N/A   Mostly Cloudy
6:01 PM 73.9 °F 72.0 °F 93% 29.89 in 8.0 mi SSW 3.5 mph - N/A   Mostly Cloudy
6:11 PM 75.0 °F 72.0 °F 90% 29.89 in 8.0 mi SSW 3.5 mph - N/A   Mostly Cloudy
6:54 PM 73.9 °F 72.0 °F 93% 29.87 in 9.0 mi Variable 4.6 mph - N/A   Mostly Cloudy
7:10 PM 73.0 °F 72.0 °F 96% 29.88 in 7.0 mi Variable 6.9 mph - N/A   Overcast
7:27 PM 73.0 °F 71.1 °F 93% 29.89 in 8.0 mi Variable 6.9 mph - N/A   Mostly Cloudy
7:36 PM 73.0 °F 71.1 °F 93% 29.89 in 8.0 mi Variable 6.9 mph - N/A   Mostly Cloudy
7:54 PM 72.0 °F 71.1 °F 97% 29.88 in 7.0 mi Variable 6.9 mph - N/A   Overcast
8:22 PM 72.0 °F 71.1 °F 97% 29.90 in 5.0 mi South 8.1 mph - N/A   Overcast
8:54 PM 72.0 °F 71.1 °F 97% 29.89 in 6.0 mi SSW 8.1 mph - N/A   Overcast
9:54 PM 71.1 °F 70.0 °F 96% 29.89 in 7.0 mi SSW 8.1 mph - N/A   Overcast
10:19 PM 71.1 °F 70.0 °F 96% 29.90 in 7.0 mi SSW 10.4 mph - N/A   Overcast
10:51 PM 71.6 °F 69.8 °F 94% 29.90 in 7.0 mi SSW 9.2 mph - N/A   Overcast
10:54 PM 71.1 °F 70.0 °F 96% 29.89 in 7.0 mi SSW 8.1 mph - N/A   Overcast
11:16 PM 71.1 °F 70.0 °F 96% 29.90 in 7.0 mi South 10.4 mph - N/A   Overcast
11:41 PM 71.1 °F 70.0 °F 96% 29.90 in 7.0 mi South 6.9 mph - N/A   Overcast
11:54 PM 71.1 °F 70.0 °F 96% 29.88 in 7.0 mi SSE 8.1 mph - N/A   Overcast